,,,PA_Meas_PMT16A,,PR_Meas_QMR101_102,,RH_Meas_QMH101,,SR_Meas_QMS101,,TA_Meas_QMH101,,GenWind,,GenWind,
date,time,status,PA,status,PR,status,RH,status,SR,status,TA,status,DirAvg,status,SpdAvg,
2009-05-17, 00:00:05,VALID,1003,VALID,0,VALID,88.0907,VALID,0,VALID,26.605,VALID,17,VALID,0.983594,
2009-05-17, 00:01:05,VALID,1003.03,VALID,0,VALID,87.7016,VALID,0,VALID,26.7024,VALID,334,VALID,0.397266,
2009-05-17, 00:02:05,VALID,1003.02,VALID,0,VALID,87.3812,VALID,0,VALID,26.7609,VALID,16,VALID,0.682031,
2009-05-17, 00:03:05,VALID,1003.04,VALID,0,VALID,87.2057,VALID,0,VALID,26.7804,VALID,39,VALID,0.803906,
2009-05-17, 00:04:05,VALID,1003.09,VALID,0,VALID,87.0837,VALID,0,VALID,26.8193,VALID,1,VALID,0.577344,
2009-05-17, 00:05:05,VALID,1003.1,VALID,0,VALID,87.0226,VALID,0,VALID,26.8408,VALID,33,VALID,0.530859,
2009-05-17, 00:06:05,VALID,1003.12,VALID,0,VALID,86.9464,VALID,0,VALID,26.7998,VALID,61,VALID,0.390234,
2009-05-17, 00:07:05,VALID,1003.11,VALID,0,VALID,87.0074,VALID,0,VALID,26.7998,VALID,22,VALID,0.614062,
2009-05-17, 00:08:05,VALID,1003.08,VALID,0,VALID,87.1142,VALID,0,VALID,26.7804,VALID,3,VALID,0.813281,
2009-05-17, 00:09:05,VALID,1003.05,VALID,0,VALID,87.1066,VALID,0,VALID,26.8214,VALID,33,VALID,1.19727,
2009-05-17, 00:10:05,VALID,1003.03,VALID,0,VALID,87.1294,VALID,0,VALID,26.7998,VALID,10,VALID,1.57148,
2009-05-17, 00:11:05,VALID,1003,VALID,0,VALID,87.1294,VALID,0,VALID,26.8193,VALID,356,VALID,1.10156,
2009-05-17, 00:12:05,VALID,1002.99,VALID,0,VALID,86.954,VALID,0,VALID,26.8388,VALID,30,VALID,0.817187,
2009-05-17, 00:13:05,VALID,1002.99,VALID,0,VALID,87.0074,VALID,0,VALID,26.8193,VALID,351,VALID,0.898438,
2009-05-17, 00:14:05,VALID,1002.98,VALID,0,VALID,86.954,VALID,0,VALID,26.7978,VALID,341,VALID,0.908594,
2009-05-17, 00:15:05,VALID,1002.98,VALID,0,VALID,86.954,VALID,0,VALID,26.8388,VALID,15,VALID,1.08555,
2009-05-17, 00:16:05,VALID,1002.98,VALID,0,VALID,86.8243,VALID,0,VALID,26.8388,VALID,33,VALID,0.846484,
2009-05-17, 00:17:05,VALID,1002.96,VALID,0,VALID,86.7709,VALID,0,VALID,26.8583,VALID,15,VALID,0.346875,
2009-05-17, 00:18:05,VALID,1002.95,VALID,0,VALID,86.8777,VALID,0,VALID,26.8388,VALID,18,VALID,0.221875,
2009-05-17, 00:19:05,VALID,1002.97,VALID,0,VALID,86.9387,VALID,0,VALID,26.8193,VALID,15,VALID,0.364844,
2009-05-17, 00:20:05,VALID,1002.96,VALID,0,VALID,87.0837,VALID,0,VALID,26.8019,VALID,347,VALID,0.423828,
2009-05-17, 00:21:05,VALID,1002.98,VALID,0,VALID,87.1142,VALID,0,VALID,26.7804,VALID,81,VALID,0.457422,
2009-05-17, 00:22:05,VALID,1002.96,VALID,0,VALID,87.1676,VALID,0,VALID,26.7394,VALID,36,VALID,0.569922,
2009-05-17, 00:23:05,VALID,1002.97,VALID,0,VALID,87.2515,VALID,0,VALID,26.7804,VALID,27,VALID,0.290625,
2009-05-17, 00:24:05,VALID,1002.94,VALID,0,VALID,87.3202,VALID,0,VALID,26.7219,VALID,28,VALID,0.410156,
2009-05-17, 00:25:05,VALID,1002.89,VALID,0,VALID,87.4499,VALID,0,VALID,26.7239,VALID,30,VALID,0.4375,
2009-05-17, 00:26:05,VALID,1002.89,VALID,0,VALID,87.5795,VALID,0,VALID,26.7024,VALID,357,VALID,0.653125,
2009-05-17, 00:27:05,VALID,1002.88,VALID,0,VALID,87.7321,VALID,0,VALID,26.7024,VALID,351,VALID,0.544922,
2009-05-17, 00:28:05,VALID,1002.87,VALID,0,VALID,87.7932,VALID,0,VALID,26.683,VALID,23,VALID,0.633203,
2009-05-17, 00:29:05,VALID,1002.93,VALID,0,VALID,87.9381,VALID,0,VALID,26.6225,VALID,26,VALID,0.214062,
2009-05-17, 00:30:05,VALID,1002.96,VALID,0,VALID,88.1212,VALID,0,VALID,26.605,VALID,47,VALID,0.597656,
2009-05-17, 00:31:05,VALID,1003,VALID,0,VALID,88.2051,VALID,0,VALID,26.5855,VALID,54,VALID,0.232031,
2009-05-17, 00:32:05,VALID,1002.99,VALID,0,VALID,88.3424,VALID,0,VALID,26.5466,VALID,54,VALID,0.164844,
2009-05-17, 00:33:05,VALID,1002.99,VALID,0,VALID,88.5026,VALID,0,VALID,26.5271,VALID,70,VALID,0.742969,
2009-05-17, 00:34:05,VALID,1002.98,VALID,0,VALID,88.6781,VALID,0,VALID,26.5096,VALID,55,VALID,0.489453,
2009-05-17, 00:35:05,VALID,1002.95,VALID,0,VALID,88.8917,VALID,0,VALID,26.4881,VALID,4,VALID,0.81875,
2009-05-17, 00:36:05,VALID,1002.99,VALID,0,VALID,88.7315,VALID,0,VALID,26.5076,VALID,37,VALID,0.689062,
2009-05-17, 00:37:05,VALID,1002.94,VALID,0,VALID,88.7239,VALID,0,VALID,26.5056,VALID,35,VALID,0.542188,
2009-05-17, 00:38:05,VALID,1002.96,VALID,0,VALID,88.5942,VALID,0,VALID,26.5271,VALID,34,VALID,0,
2009-05-17, 00:39:05,VALID,1003,VALID,0,VALID,88.6857,VALID,0,VALID,26.4861,VALID,33,VALID,0.360156,
2009-05-17, 00:40:05,VALID,1003.03,VALID,0,VALID,88.701,VALID,0,VALID,26.5271,VALID,31,VALID,0.541016,
2009-05-17, 00:41:05,VALID,1003.04,VALID,0,VALID,88.6476,VALID,0,VALID,26.4861,VALID,31,VALID,0.302344,
2009-05-17, 00:42:05,VALID,1003.04,VALID,0,VALID,88.7544,VALID,0,VALID,26.4667,VALID,40,VALID,0.50625,
2009-05-17, 00:43:05,VALID,1003.02,VALID,0,VALID,88.8154,VALID,0,VALID,26.4472,VALID,75,VALID,0.348828,
2009-05-17, 00:44:05,VALID,1003,VALID,0,VALID,88.8459,VALID,0,VALID,26.4492,VALID,66,VALID,0.394531,
2009-05-17, 00:45:05,VALID,1002.99,VALID,0,VALID,88.968,VALID,0,VALID,26.4277,VALID,57,VALID,0.371875,
2009-05-17, 00:46:05,VALID,1002.98,VALID,0,VALID,88.968,VALID,0,VALID,26.4492,VALID,57,VALID,0.176172,
2009-05-17, 00:47:05,VALID,1002.92,VALID,0,VALID,88.968,VALID,0,VALID,26.4492,VALID,57,VALID,0.241797,
2009-05-17, 00:48:05,VALID,1002.93,VALID,0,VALID,89.0061,VALID,0.100563,VALID,26.4297,VALID,43,VALID,0.501172,
2009-05-17, 00:49:05,VALID,1002.9,VALID,0,VALID,89.0443,VALID,0,VALID,26.4687,VALID,17,VALID,1.23281,
2009-05-17, 00:50:05,VALID,1002.89,VALID,0,VALID,88.6934,VALID,0,VALID,26.5446,VALID,32,VALID,0.409375,
2009-05-17, 00:51:05,VALID,1002.88,VALID,0,VALID,88.4035,VALID,0,VALID,26.5661,VALID,32,VALID,0.4125,
2009-05-17, 00:52:05,VALID,1002.87,VALID,0,VALID,88.4492,VALID,0,VALID,26.5466,VALID,54,VALID,0.465234,
2009-05-17, 00:53:05,VALID,1002.85,VALID,0,VALID,88.5484,VALID,0,VALID,26.5271,VALID,29,VALID,0.846875,
2009-05-17, 00:54:05,VALID,1002.89,VALID,0,VALID,88.4492,VALID,0,VALID,26.5661,VALID,22,VALID,0.553906,
2009-05-17, 00:55:05,VALID,1002.85,VALID,0,VALID,88.3348,VALID,0,VALID,26.5661,VALID,17,VALID,0.566797,
2009-05-17, 00:56:05,VALID,1002.82,VALID,0,VALID,88.4264,VALID,0,VALID,26.5466,VALID,28,VALID,0.717578,
2009-05-17, 00:57:05,VALID,1002.81,VALID,0,VALID,88.3653,VALID,0,VALID,26.5855,VALID,9,VALID,0.546094,
2009-05-17, 00:58:05,VALID,1002.75,VALID,0,VALID,88.2127,VALID,0,VALID,26.644,VALID,12,VALID,1.22969,
2009-05-17, 00:59:05,VALID,1002.75,VALID,0,VALID,87.9686,VALID,0,VALID,26.7024,VALID,10,VALID,0.79375,
2009-05-17, 01:00:05,VALID,1002.69,VALID,0,VALID,87.2591,VALID,0,VALID,26.8778,VALID,36,VALID,0.801172,
2009-05-17, 01:01:05,VALID,1002.66,VALID,0,VALID,86.6412,VALID,0,VALID,26.9557,VALID,341,VALID,1.06523,
2009-05-17, 01:02:05,VALID,1002.68,VALID,0,VALID,86.5649,VALID,0,VALID,26.9342,VALID,2,VALID,0.595312,
2009-05-17, 01:03:05,VALID,1002.64,VALID,0,VALID,86.2216,VALID,0,VALID,26.9752,VALID,31,VALID,2.18984,
2009-05-17, 01:04:05,VALID,1002.63,VALID,0,VALID,86.0309,VALID,0,VALID,27.0336,VALID,27,VALID,1.21719,
2009-05-17, 01:05:05,VALID,1002.59,VALID,0,VALID,85.947,VALID,0,VALID,27.0121,VALID,25,VALID,1.39648,
2009-05-17, 01:06:05,VALID,1002.52,VALID,0,VALID,85.8707,VALID,0,VALID,27.0142,VALID,351,VALID,1.69297,
2009-05-17, 01:07:05,VALID,1002.49,VALID,0,VALID,86.0461,VALID,0,VALID,26.9362,VALID,29,VALID,1.09063,
2009-05-17, 01:08:05,VALID,1002.42,VALID,0,VALID,85.8096,VALID,0,VALID,26.8778,VALID,38,VALID,1.10039,
2009-05-17, 01:09:05,VALID,1002.41,VALID,0,VALID,86.0461,VALID,0,VALID,26.8193,VALID,36,VALID,1.33438,
2009-05-17, 01:10:05,VALID,1002.41,VALID,0,VALID,85.9775,VALID,0,VALID,26.8019,VALID,359,VALID,1.26484,
2009-05-17, 01:11:05,VALID,1002.41,VALID,0,VALID,85.5503,VALID,0,VALID,26.7219,VALID,356,VALID,0.975,
2009-05-17, 01:12:05,VALID,1002.4,VALID,0,VALID,85.0315,VALID,0,VALID,26.6635,VALID,33,VALID,1.18945,
2009-05-17, 01:13:05,VALID,1002.4,VALID,0,VALID,84.9857,VALID,0,VALID,26.644,VALID,9,VALID,0.8875,
2009-05-17, 01:14:05,VALID,1002.42,VALID,0,VALID,83.9635,VALID,0,VALID,26.7045,VALID,12,VALID,1.06211,
2009-05-17, 01:15:05,VALID,1002.43,VALID,0,VALID,84.0092,VALID,0,VALID,26.7024,VALID,10,VALID,1.10156,
2009-05-17, 01:16:05,VALID,1002.46,VALID,0,VALID,83.4371,VALID,0,VALID,26.683,VALID,26,VALID,1.69297,
2009-05-17, 01:17:05,VALID,1002.47,VALID,0,VALID,83.8261,VALID,0,VALID,26.6809,VALID,23,VALID,0.969531,
2009-05-17, 01:18:05,VALID,1002.45,VALID,0,VALID,83.5668,VALID,0,VALID,26.683,VALID,36,VALID,1.26172,
2009-05-17, 01:19:05,VALID,1002.45,VALID,0,VALID,83.727,VALID,0,VALID,26.644,VALID,357,VALID,0.758984,
2009-05-17, 01:20:05,VALID,1002.44,VALID,0,VALID,82.6589,VALID,0,VALID,26.6245,VALID,25,VALID,1.10859,
2009-05-17, 01:21:05,VALID,1002.44,VALID,0,VALID,83.254,VALID,0,VALID,26.6245,VALID,359,VALID,1.33086,
2009-05-17, 01:22:05,VALID,1002.41,VALID,0,VALID,83.6278,VALID,0,VALID,26.5661,VALID,338,VALID,0.932031,
2009-05-17, 01:23:05,VALID,1002.4,VALID,0,VALID,83.3684,VALID,0,VALID,26.5271,VALID,23,VALID,1.76406,
2009-05-17, 01:24:05,VALID,1002.34,VALID,0,VALID,83.5134,VALID,0,VALID,26.4687,VALID,43,VALID,1.02266,
2009-05-17, 01:25:05,VALID,1002.3,VALID,0,VALID,83.5668,VALID,0,VALID,26.4687,VALID,353,VALID,0.657812,
2009-05-17, 01:26:05,VALID,1002.25,VALID,0,VALID,83.1929,VALID,0,VALID,26.4297,VALID,359,VALID,1.15469,
2009-05-17, 01:27:05,VALID,1002.19,VALID,0,VALID,83.0175,VALID,0,VALID,26.4122,VALID,13,VALID,1.08828,
2009-05-17, 01:28:05,VALID,1002.13,VALID,0,VALID,81.5756,VALID,0,VALID,26.4102,VALID,16,VALID,2.21484,
2009-05-17, 01:29:05,VALID,1002.1,VALID,0,VALID,81.1103,VALID,0,VALID,26.4492,VALID,3,VALID,1.26016,
2009-05-17, 01:30:05,VALID,1002.08,VALID,0,VALID,80.1643,VALID,0,VALID,26.5271,VALID,19,VALID,1.75312,
2009-05-17, 01:31:05,VALID,1002.05,VALID,0,VALID,79.5387,VALID,0,VALID,26.5661,VALID,350,VALID,1.46094,
2009-05-17, 01:32:05,VALID,1002,VALID,0,VALID,79.676,VALID,0,VALID,26.5855,VALID,19,VALID,1.48828,
2009-05-17, 01:33:05,VALID,1002.04,VALID,0,VALID,79.6074,VALID,0,VALID,26.5855,VALID,4,VALID,1.39375,
2009-05-17, 01:34:05,VALID,1002.11,VALID,0,VALID,80.4084,VALID,0,VALID,26.605,VALID,27,VALID,0.962891,
2009-05-17, 01:35:05,VALID,1002.13,VALID,0,VALID,79.8591,VALID,0,VALID,26.644,VALID,6,VALID,1.15937,
2009-05-17, 01:36:05,VALID,1002.16,VALID,0,VALID,79.3175,VALID,0,VALID,26.683,VALID,357,VALID,2.47969,
2009-05-17, 01:37:05,VALID,1002.26,VALID,0,VALID,78.6004,VALID,0,VALID,26.7609,VALID,35,VALID,2.76875,
2009-05-17, 01:38:05,VALID,1002.3,VALID,0,VALID,78.4401,VALID,0,VALID,26.8583,VALID,28,VALID,2.29219,
2009-05-17, 01:39:05,VALID,1002.4,VALID,0,VALID,79.0123,VALID,0,VALID,26.8583,VALID,7,VALID,1.54648,
2009-05-17, 01:40:05,VALID,1002.42,VALID,0,VALID,79.1344,VALID,0,VALID,26.8408,VALID,3,VALID,1.28359,
2009-05-17, 01:41:05,VALID,1002.45,VALID,0,VALID,79.3938,VALID,0,VALID,26.7219,VALID,25,VALID,1.91836,
2009-05-17, 01:42:05,VALID,1002.41,VALID,0,VALID,80.0041,VALID,0,VALID,26.683,VALID,16,VALID,1.24922,
2009-05-17, 01:43:05,VALID,1002.36,VALID,0,VALID,80.7364,VALID,0,VALID,26.6245,VALID,9,VALID,0.746094,
2009-05-17, 01:44:05,VALID,1002.3,VALID,0,VALID,80.7975,VALID,0,VALID,26.5661,VALID,346,VALID,0.932813,
2009-05-17, 01:45:04,VALID,1002.27,VALID,0,VALID,81.3696,VALID,0,VALID,26.4881,VALID,357,VALID,1.45195,
2009-05-17, 01:46:04,VALID,1002.22,VALID,0,VALID,81.5832,VALID,0,VALID,26.4297,VALID,347,VALID,1.31719,
2009-05-17, 01:47:04,VALID,1002.29,VALID,0,VALID,82.1936,VALID,0,VALID,26.3713,VALID,3,VALID,1.7418,
2009-05-17, 01:48:04,VALID,1002.36,VALID,0,VALID,82.0639,VALID,0,VALID,26.3518,VALID,47,VALID,2.42461,
2009-05-17, 01:49:04,VALID,1002.36,VALID,0,VALID,82.6513,VALID,0,VALID,26.3148,VALID,56,VALID,3.58047,
2009-05-17, 01:50:04,VALID,1002.44,VALID,0,VALID,84.2534,VALID,0,VALID,26.118,VALID,37,VALID,3.77734,
2009-05-17, 01:51:04,VALID,1002.49,VALID,0.5,VALID,86.1758,VALID,0,VALID,25.8259,VALID,28,VALID,2.43594,
2009-05-17, 01:52:04,VALID,1002.46,VALID,0,VALID,87.7245,VALID,0,VALID,25.5727,VALID,33,VALID,2.52148,
2009-05-17, 01:53:04,VALID,1002.45,VALID,0.5,VALID,88.7925,VALID,0,VALID,25.3798,VALID,31,VALID,2.94492,
2009-05-17, 01:54:04,VALID,1002.55,VALID,0.5,VALID,89.7233,VALID,0,VALID,25.1832,VALID,54,VALID,3.39922,
2009-05-17, 01:55:04,VALID,1002.58,VALID,0,VALID,90.5396,VALID,0,VALID,25.0877,VALID,56,VALID,1.88359,
2009-05-17, 01:56:04,VALID,1002.65,VALID,0.5,VALID,91.2262,VALID,0,VALID,24.9904,VALID,42,VALID,1.45859,
2009-05-17, 01:57:04,VALID,1002.72,VALID,0.5,VALID,91.7373,VALID,0,VALID,24.8716,VALID,75,VALID,1.53086,
2009-05-17, 01:58:04,VALID,1002.7,VALID,0.5,VALID,92.1187,VALID,0,VALID,24.7956,VALID,52,VALID,2.09453,
2009-05-17, 01:59:04,VALID,1002.69,VALID,0.5,VALID,92.5383,VALID,0,VALID,24.7159,VALID,55,VALID,0.982031,
2009-05-17, 02:00:04,VALID,1002.65,VALID,0.5,VALID,92.813,VALID,0,VALID,24.6574,VALID,79,VALID,0.789453,
2009-05-17, 02:01:04,VALID,1002.64,VALID,0.5,VALID,93.0876,VALID,0,VALID,24.6185,VALID,49,VALID,0.628125,
2009-05-17, 02:02:04,VALID,1002.63,VALID,0,VALID,93.3394,VALID,0,VALID,24.5582,VALID,78,VALID,1.30156,
2009-05-17, 02:03:04,VALID,1002.59,VALID,0.5,VALID,93.5682,VALID,0,VALID,24.5796,VALID,17,VALID,1.37305,
2009-05-17, 02:04:04,VALID,1002.56,VALID,1,VALID,93.7818,VALID,0,VALID,24.5601,VALID,14,VALID,1.1793,
2009-05-17, 02:05:04,VALID,1002.57,VALID,0.5,VALID,93.7818,VALID,0,VALID,24.5212,VALID,16,VALID,2.44609,
2009-05-17, 02:06:04,VALID,1002.49,VALID,0,VALID,93.7895,VALID,0,VALID,24.4841,VALID,28,VALID,2.25312,
2009-05-17, 02:07:04,VALID,1002.5,VALID,0.5,VALID,93.8505,VALID,0,VALID,24.4433,VALID,31,VALID,3.15586,
2009-05-17, 02:08:04,VALID,1002.48,VALID,0,VALID,93.8657,VALID,0,VALID,24.4238,VALID,31,VALID,2.11016,
2009-05-17, 02:09:04,VALID,1002.48,VALID,0.5,VALID,93.7742,VALID,0,VALID,24.3849,VALID,35,VALID,2.42148,
2009-05-17, 02:10:04,VALID,1002.42,VALID,0,VALID,93.8886,VALID,0,VALID,24.3636,VALID,2,VALID,1.82344,
2009-05-17, 02:11:04,VALID,1002.42,VALID,0,VALID,93.9573,VALID,0,VALID,24.3654,VALID,12,VALID,1.75469,
2009-05-17, 02:12:04,VALID,1002.48,VALID,0,VALID,94.0412,VALID,0,VALID,24.383,VALID,28,VALID,2.59336,
2009-05-17, 02:13:04,VALID,1002.45,VALID,0,VALID,94.0488,VALID,0,VALID,24.4433,VALID,30,VALID,3.06094,
2009-05-17, 02:14:04,VALID,1002.42,VALID,0.5,VALID,93.9573,VALID,0,VALID,24.4433,VALID,27,VALID,1.64453,
2009-05-17, 02:15:04,VALID,1002.37,VALID,0,VALID,93.9573,VALID,0,VALID,24.4414,VALID,39,VALID,1.89805,
2009-05-17, 02:16:04,VALID,1002.31,VALID,0,VALID,93.9191,VALID,0,VALID,24.4628,VALID,33,VALID,3.55234,
2009-05-17, 02:17:04,VALID,1002.21,VALID,0,VALID,93.8886,VALID,0,VALID,24.4822,VALID,6,VALID,1.09805,
2009-05-17, 02:18:04,VALID,1002.22,VALID,0,VALID,93.942,VALID,0,VALID,24.5017,VALID,16,VALID,2.42539,
2009-05-17, 02:19:04,VALID,1002.25,VALID,0,VALID,94.0412,VALID,0,VALID,24.5406,VALID,25,VALID,2.04023,
2009-05-17, 02:20:04,VALID,1002.26,VALID,0,VALID,94.0641,VALID,0,VALID,24.5406,VALID,28,VALID,1.10977,
2009-05-17, 02:21:04,VALID,1002.2,VALID,0,VALID,94.1175,VALID,0,VALID,24.5193,VALID,348,VALID,0.603516,
2009-05-17, 02:22:04,VALID,1002.29,VALID,0,VALID,94.1709,VALID,0,VALID,24.5193,VALID,29,VALID,2.08281,
2009-05-17, 02:23:04,VALID,1002.3,VALID,0,VALID,94.1785,VALID,0.100563,VALID,24.5601,VALID,1,VALID,2.31797,
2009-05-17, 02:24:04,VALID,1002.34,VALID,0,VALID,94.1709,VALID,0,VALID,24.5796,VALID,17,VALID,1.83203,
2009-05-17, 02:25:04,VALID,1002.33,VALID,0,VALID,94.1785,VALID,0,VALID,24.5582,VALID,9,VALID,1.93164,
2009-05-17, 02:26:04,VALID,1002.35,VALID,0,VALID,94.1251,VALID,0,VALID,24.5777,VALID,7,VALID,3.00273,
2009-05-17, 02:27:04,VALID,1002.39,VALID,0,VALID,94.0031,VALID,0,VALID,24.638,VALID,34,VALID,2.04844,
2009-05-17, 02:28:04,VALID,1002.38,VALID,0,VALID,93.8886,VALID,0,VALID,24.6769,VALID,26,VALID,1.64102,
2009-05-17, 02:29:04,VALID,1002.37,VALID,0,VALID,93.8276,VALID,0.100563,VALID,24.6556,VALID,11,VALID,1.75312,
2009-05-17, 02:30:04,VALID,1002.39,VALID,0,VALID,93.7742,VALID,0,VALID,24.6769,VALID,32,VALID,2.07148,
2009-05-17, 02:31:04,VALID,1002.39,VALID,0,VALID,93.6979,VALID,0,VALID,24.7372,VALID,53,VALID,2.94258,
2009-05-17, 02:32:04,VALID,1002.37,VALID,0,VALID,93.553,VALID,0,VALID,24.7353,VALID,17,VALID,3.63594,
2009-05-17, 02:33:04,VALID,1002.31,VALID,0,VALID,93.347,VALID,0,VALID,24.7743,VALID,21,VALID,2.26563,
2009-05-17, 02:34:04,VALID,1002.29,VALID,0,VALID,93.2097,VALID,0,VALID,24.7335,VALID,30,VALID,4.06641,
2009-05-17, 02:35:04,VALID,1002.29,VALID,0,VALID,93.0723,VALID,0,VALID,24.714,VALID,30,VALID,2.96406,
2009-05-17, 02:36:04,VALID,1002.28,VALID,0,VALID,93.0571,VALID,0,VALID,24.714,VALID,65,VALID,1.31289,
2009-05-17, 02:37:04,VALID,1002.24,VALID,0,VALID,92.8053,VALID,0,VALID,24.6574,VALID,31,VALID,2.07422,
2009-05-17, 02:38:04,VALID,1002.21,VALID,0,VALID,92.9045,VALID,0,VALID,24.6769,VALID,11,VALID,2.00859,
2009-05-17, 02:39:04,VALID,1002.17,VALID,0,VALID,93.0418,VALID,0,VALID,24.638,VALID,2,VALID,0.985937,
2009-05-17, 02:40:04,VALID,1002.2,VALID,0,VALID,92.9808,VALID,0.100563,VALID,24.5777,VALID,42,VALID,2.15937,
2009-05-17, 02:41:04,VALID,1002.16,VALID,0,VALID,92.7214,VALID,0.100563,VALID,24.5582,VALID,20,VALID,1.7707,
2009-05-17, 02:42:04,VALID,1002.17,VALID,0,VALID,92.7062,VALID,0.100563,VALID,24.5582,VALID,8,VALID,1.85625,
2009-05-17, 02:43:04,VALID,1002.21,VALID,0,VALID,92.7443,VALID,0.100563,VALID,24.5388,VALID,40,VALID,1.32461,
2009-05-17, 02:44:04,VALID,1002.3,VALID,0,VALID,92.6833,VALID,0.100563,VALID,24.5193,VALID,46,VALID,1.92148,
2009-05-17, 02:45:04,VALID,1002.3,VALID,0,VALID,92.6146,VALID,0.100563,VALID,24.4998,VALID,14,VALID,0.951953,
2009-05-17, 02:46:04,VALID,1002.27,VALID,0,VALID,92.6299,VALID,0,VALID,24.4804,VALID,10,VALID,1.1875,
2009-05-17, 02:47:04,VALID,1002.25,VALID,0,VALID,92.5002,VALID,0.100563,VALID,24.4414,VALID,42,VALID,2.27656,
2009-05-17, 02:48:04,VALID,1002.24,VALID,0,VALID,92.3552,VALID,0.100563,VALID,24.4396,VALID,68,VALID,0.845703,
2009-05-17, 02:49:04,VALID,1002.2,VALID,0,VALID,92.2179,VALID,0,VALID,24.4628,VALID,36,VALID,1.14844,
2009-05-17, 02:50:04,VALID,1002.18,VALID,0,VALID,92.1111,VALID,0.100563,VALID,24.4414,VALID,48,VALID,0.781641,
2009-05-17, 02:51:04,VALID,1002.13,VALID,0,VALID,92.0653,VALID,0,VALID,24.4628,VALID,15,VALID,0.740234,
2009-05-17, 02:52:04,VALID,1002.16,VALID,0,VALID,92.1569,VALID,0.100563,VALID,24.422,VALID,36,VALID,0.735156,
2009-05-17, 02:53:04,VALID,1002.1,VALID,0,VALID,91.4932,VALID,0,VALID,24.4043,VALID,26,VALID,2.78281,
2009-05-17, 02:54:04,VALID,1002.12,VALID,0,VALID,91.0736,VALID,0,VALID,24.422,VALID,67,VALID,1.60469,
2009-05-17, 02:55:04,VALID,1002.09,VALID,0,VALID,90.5014,VALID,0,VALID,24.422,VALID,15,VALID,1.42148,
2009-05-17, 02:56:04,VALID,1002.08,VALID,0,VALID,90.6006,VALID,0,VALID,24.4238,VALID,49,VALID,0.931641,
2009-05-17, 02:57:04,VALID,1002.12,VALID,0,VALID,90.715,VALID,0,VALID,24.4043,VALID,20,VALID,2.00391,
2009-05-17, 02:58:04,VALID,1002.09,VALID,0,VALID,90.7303,VALID,0,VALID,24.3636,VALID,21,VALID,1.28047,
2009-05-17, 02:59:04,VALID,1002.08,VALID,0,VALID,90.715,VALID,0,VALID,24.3849,VALID,63,VALID,1.04961,
2009-05-17, 03:00:04,VALID,1002.09,VALID,0,VALID,90.6692,VALID,0.100563,VALID,24.3441,VALID,39,VALID,1.02891,
2009-05-17, 03:01:04,VALID,1002.09,VALID,0,VALID,90.5853,VALID,0,VALID,24.3246,VALID,87,VALID,1.69922,
2009-05-17, 03:02:04,VALID,1002.1,VALID,0,VALID,90.6998,VALID,0.100563,VALID,24.3459,VALID,76,VALID,1.18828,
2009-05-17, 03:03:04,VALID,1002.02,VALID,0,VALID,90.8142,VALID,0.100563,VALID,24.3246,VALID,76,VALID,0.589844,
2009-05-17, 03:04:04,VALID,1002.03,VALID,0,VALID,90.8218,VALID,0.100563,VALID,24.3052,VALID,94,VALID,1.51133,
2009-05-17, 03:05:04,VALID,1001.98,VALID,0,VALID,90.8295,VALID,0,VALID,24.2662,VALID,74,VALID,1.09648,
2009-05-17, 03:06:04,VALID,1002,VALID,0,VALID,90.982,VALID,0,VALID,24.2875,VALID,78,VALID,0.680859,
2009-05-17, 03:07:04,VALID,1002.01,VALID,0,VALID,91.0736,VALID,0,VALID,24.2875,VALID,47,VALID,0.509375,
2009-05-17, 03:08:04,VALID,1001.96,VALID,0,VALID,91.2185,VALID,0,VALID,24.3088,VALID,47,VALID,0.502344,
2009-05-17, 03:09:04,VALID,1001.97,VALID,0,VALID,91.333,VALID,0,VALID,24.2681,VALID,39,VALID,0.598047,
2009-05-17, 03:10:04,VALID,1002.01,VALID,0,VALID,91.4703,VALID,0,VALID,24.2894,VALID,82,VALID,0.599609,
2009-05-17, 03:11:04,VALID,1002.02,VALID,0,VALID,91.5847,VALID,0,VALID,24.2699,VALID,40,VALID,0.475391,
2009-05-17, 03:12:04,VALID,1001.98,VALID,0,VALID,91.6839,VALID,0.100563,VALID,24.2468,VALID,40,VALID,0.778516,
2009-05-17, 03:13:04,VALID,1001.98,VALID,0,VALID,91.8136,VALID,0.100563,VALID,24.2662,VALID,10,VALID,0.919141,
2009-05-17, 03:14:04,VALID,1001.95,VALID,0,VALID,91.9662,VALID,0.100563,VALID,24.2662,VALID,358,VALID,0.669922,
2009-05-17, 03:15:04,VALID,1001.9,VALID,0,VALID,92.0882,VALID,0.100563,VALID,24.2857,VALID,358,VALID,0.362891,
2009-05-17, 03:16:04,VALID,1001.92,VALID,0,VALID,92.1492,VALID,0,VALID,24.2857,VALID,38,VALID,0.938281,
2009-05-17, 03:17:04,VALID,1001.91,VALID,0,VALID,92.195,VALID,0.100563,VALID,24.2857,VALID,11,VALID,0.567187,
2009-05-17, 03:18:04,VALID,1001.88,VALID,0,VALID,92.2789,VALID,0.100563,VALID,24.3246,VALID,13,VALID,0.343359,
2009-05-17, 03:19:04,VALID,1001.86,VALID,0,VALID,92.2255,VALID,0.100563,VALID,24.3246,VALID,100,VALID,0.563672,
2009-05-17, 03:20:04,VALID,1001.83,VALID,0,VALID,92.2255,VALID,0.100563,VALID,24.2839,VALID,100,VALID,0.308984,
2009-05-17, 03:21:04,VALID,1001.83,VALID,0,VALID,92.3018,VALID,0,VALID,24.2857,VALID,94,VALID,0.519922,
2009-05-17, 03:22:04,VALID,1001.85,VALID,0,VALID,92.4315,VALID,0.100563,VALID,24.2662,VALID,92,VALID,0.496094,
2009-05-17, 03:23:04,VALID,1001.79,VALID,0,VALID,92.5536,VALID,0,VALID,24.2486,VALID,92,VALID,0.0832031,
2009-05-17, 03:24:04,VALID,1001.77,VALID,0,VALID,92.6909,VALID,0.100563,VALID,24.2078,VALID,92,VALID,0.0488281,
2009-05-17, 03:25:04,VALID,1001.73,VALID,0,VALID,92.8206,VALID,0,VALID,24.1689,VALID,92,VALID,0.0015625,
2009-05-17, 03:26:04,VALID,1001.72,VALID,0,VALID,92.9274,VALID,0.100563,VALID,24.1689,VALID,92,VALID,0.0402344,
2009-05-17, 03:27:04,VALID,1001.69,VALID,0,VALID,93.0647,VALID,0.100563,VALID,24.1494,VALID,92,VALID,0.139453,
2009-05-17, 03:28:04,VALID,1001.66,VALID,0,VALID,93.141,VALID,0,VALID,24.1707,VALID,92,VALID,0,
2009-05-17, 03:29:04,VALID,1001.65,VALID,0,VALID,93.2249,VALID,0.100563,VALID,24.13,VALID,92,VALID,0,
2009-05-17, 03:30:04,VALID,1001.66,VALID,0,VALID,93.3012,VALID,0.100563,VALID,24.13,VALID,92,VALID,0,
2009-05-17, 03:31:04,VALID,1001.62,VALID,0,VALID,93.4385,VALID,0.100563,VALID,24.1105,VALID,92,VALID,0,
2009-05-17, 03:32:04,VALID,1001.66,VALID,0,VALID,93.5301,VALID,0.100563,VALID,24.13,VALID,195,VALID,0.801953,
2009-05-17, 03:33:04,VALID,1001.67,VALID,0,VALID,93.5835,VALID,0,VALID,24.1513,VALID,202,VALID,0.954687,
2009-05-17, 03:34:04,VALID,1001.71,VALID,0,VALID,93.6216,VALID,0.100563,VALID,24.1494,VALID,206,VALID,0.819922,
2009-05-17, 03:35:04,VALID,1001.78,VALID,0,VALID,93.4996,VALID,0.100563,VALID,24.1494,VALID,218,VALID,0.809766,
2009-05-17, 03:36:04,VALID,1001.83,VALID,0,VALID,93.5148,VALID,0.100563,VALID,24.13,VALID,217,VALID,0.619922,
2009-05-17, 03:37:04,VALID,1001.83,VALID,0,VALID,93.553,VALID,0.100563,VALID,24.13,VALID,217,VALID,0.461719,
2009-05-17, 03:38:04,VALID,1001.87,VALID,0,VALID,93.5224,VALID,0,VALID,24.1707,VALID,202,VALID,0.375,
2009-05-17, 03:39:04,VALID,1001.86,VALID,0,VALID,93.4767,VALID,0.100563,VALID,24.13,VALID,202,VALID,0.196484,
2009-05-17, 03:40:04,VALID,1001.91,VALID,0,VALID,93.5148,VALID,0.100563,VALID,24.1105,VALID,205,VALID,0.417969,
2009-05-17, 03:41:04,VALID,1001.92,VALID,0,VALID,93.5377,VALID,0.100563,VALID,24.1105,VALID,200,VALID,0.438672,
2009-05-17, 03:42:04,VALID,1001.94,VALID,0,VALID,93.5224,VALID,0.100563,VALID,24.1105,VALID,193,VALID,0.241797,
2009-05-17, 03:43:04,VALID,1001.99,VALID,0,VALID,93.4919,VALID,0.100563,VALID,24.13,VALID,179,VALID,0,
2009-05-17, 03:44:04,VALID,1001.97,VALID,0,VALID,93.4767,VALID,0,VALID,24.1105,VALID,179,VALID,0,